Regional Weather Roundup
Issued by NWS Bismarck, ND

Home | Current Version | Previous Version | Text Only | Print | Product List | Glossary On
Versions: 1 2 3 4 5 6 7 8 9 10 11 12 13 14 15 16 17 18 19 20 21 22 23 24 25 26 27 28 29 30 31 32 33 34 35 36 37 38 39 40 41 42 43 44 45 46 47 48 49 50
000
ASUS43 KBIS 252220
RWRBIS

NWR BROADCAST TEXT
NATIONAL WEATHER SERVICE BISMARCK ND
500 PM CDT FRI JUL 25 2014

NOTE: "FAIR" INDICATES FEW OR NO CLOUDS BELOW 12,000 FEET WITH NO
SIGNIFICANT WEATHER AND/OR OBSTRUCTIONS TO VISIBILITY.


CITY           SKY/WX    TMP DP  RH WIND       PRES   REMARKS
WILLISTON      SUNNY     84  36  18 W17G28    29.75F
MINOT          SUNNY     79  46  31 SW13G22   29.77F
MINOT AFB      SUNNY     77  51  40 W13       29.77F
BISMARCK       SUNNY     82  47  29 NW7       29.82F
DICKINSON      SUNNY     82  46  28 S12       29.81F
GARRISON         N/A     77  54  44 W5        29.81F
HETTINGER ARPT SUNNY     82  45  27 SW8       29.86F
JAMESTOWN      SUNNY     80  53  39 NW12      29.79F
CARRINGTON     FAIR      77  55  47 W10       29.81S
CROSBY         FAIR      75  46  35 SW16G24   29.76S
HARVEY         FAIR      75  54  46 W10G17    29.80S
HAZEN          FAIR      79  46  31 W7        29.81F
LINTON         FAIR      82  50  32 W7        29.83S
MANDAN         FAIR      81  48  32 NW6       29.83S
RUGBY          FAIR      73  55  53 W14G21    29.78S
STANLEY        FAIR      77  46  33 SW13      29.79F
TIOGA          FAIR      77  46  33 SW10      29.81F
WATFORD CITY   FAIR      82  46  28 W13G22    29.75F
$$

CITY           SKY/WX    TMP DP  RH WIND       PRES   REMARKS
GRAND FORKS    MOSUNNY   81  54  39 NW13      29.73S
GRAND FORKS AF SUNNY     80  55  41 NW12      29.75S
DEVILS LAKE    SUNNY     79  52  38 W16       29.76S
FARGO          SUNNY     81  67  62 NW6       29.75S
CANDO          FAIR      75  54  46 W14       29.77F
CAVALIER       FAIR      79  54  41 W13       29.72S
GRAFTON        FAIR      79  54  41 NW20      29.72S
GWINNER        MOCLDY    81  70  69 N5        29.79F
LANGDON        FAIR      77  55  47 W16G24    29.76S
ROLLA          FAIR      73  50  43 W18G25    29.78S
WALHALLA       FAIR      77  52  41 W10G18      N/A
$$

CITY           SKY/WX    TMP DP  RH WIND       PRES   REMARKS
ABERDEEN       PTSUNNY   79  68  69 NE10G21   29.78F
MOBRIDGE       SUNNY     85  47  26 N7        29.81S
BUFFALO          N/A     82  49  31 S13       29.82F
RAPID CITY     SUNNY     80  51  36 S12       29.89F
GLASGOW        SUNNY     85  33  15 W25G36    29.74F
SIDNEY         SUNNY     88  37  16 SW13G21   29.76F
WOLF POINT     SUNNY     85  34  16 SW21G29   29.75F
GLENDIVE       SUNNY     88  34  14 W24G30    29.78F
MILES CITY     SUNNY     89  27  10 W22G35    29.79F
BAKER          SUNNY     86  38  18 W13G29    29.84F
$$

CITY           SKY/WX    TMP DP  RH WIND       PRES   REMARKS
BILLINGS       SUNNY     89  29  11 W20       29.88F
GREAT FALLS    SUNNY     80  32  17 W28G37    29.89S
REGINA         PTSUNNY   75  52  43 SW15      29.65F
ESTEVAN        MOSUNNY   75  50  41 SW12G18   29.75F
$$




USA.gov is the U.S. government's official web portal to all federal, state and local government web resources and services.